When you browse on this site, cookies collect data to enhance your experience and personalize the content and advertising you see.
Visit our Privacy Policy to learn more. By continuing to use the site, you agree to this use of cookies and data.
  • In Romania
  • List of Countries
  • For 7 days
  • Water Temperature
  • Satellite Maps
  • Weather Map
  • Weather Widgets
  • user-avatar
    Login

    Hourly Weather Estelí

    Today, 16 July, Tuesday

    Time Temperature Precipitation Wind Pressure Humidity
    00:00 +20°C° 0 mm 3 mps 687 mmHg 91%
    01:00 +20°C° 0 mm 3 mps 686 mmHg 91%
    02:00 +20°C° 0 mm 3 mps 686 mmHg 91%
    03:00 +21°C° 0 mm 3 mps 685 mmHg 90%
    04:00 +21°C° 0 mm 3 mps 686 mmHg 91%
    05:00 +20°C° 0 mm 3 mps 686 mmHg 92%
    06:00 +21°C° 0 mm 3 mps 686 mmHg 95%
    07:00 +22°C° 0 mm 3 mps 687 mmHg 86%
    08:00 +25°C° 0 mm 3 mps 687 mmHg 78%
    09:00 +26°C° 0 mm 3 mps 688 mmHg 69%
    10:00 +27°C° 0 mm 4 mps 688 mmHg 65%
    11:00 +28°C° 0 mm 4 mps 688 mmHg 60%
    12:00 +29°C° 0 mm 5 mps 688 mmHg 55%
    13:00 +29°C° 0 mm 5 mps 687 mmHg 55%
    14:00 +29°C° 0 mm 5 mps 687 mmHg 56%
    15:00 +29°C° 0 mm 5 mps 686 mmHg 56%
    16:00 +28°C° 0 mm 4 mps 686 mmHg 63%
    17:00 +26°C° 0 mm 3 mps 686 mmHg 70%
    18:00 +24°C° 0 mm 2 mps 686 mmHg 77%
    19:00 +23°C° 0 mm 2 mps 686 mmHg 80%
    20:00 +21°C° 0 mm 2 mps 687 mmHg 84%
    21:00 +20°C° 0 mm 2 mps 687 mmHg 88%
    22:00 +20°C° 0 mm 2 mps 687 mmHg 89%
    23:00 +20°C° 0 mm 2 mps 687 mmHg 91%

    Tomorrow, 17 July, Wednesday

    Time Temperature Precipitation Wind Pressure Humidity
    00:00 +19°C° 0 mm 2 mps 687 mmHg 92%
    01:00 +19°C° 0 mm 2 mps 686 mmHg 93%
    02:00 +19°C° 0 mm 2 mps 686 mmHg 93%
    03:00 +19°C° 0 mm 2 mps 685 mmHg 94%
    04:00 +19°C° 0 mm 2 mps 686 mmHg 94%
    05:00 +19°C° 0 mm 2 mps 686 mmHg 94%
    06:00 +19°C° 0 mm 2 mps 686 mmHg 94%
    07:00 +21°C° 0 mm 2 mps 687 mmHg 86%
    08:00 +24°C° 0 mm 3 mps 687 mmHg 77%
    09:00 +26°C° 0 mm 4 mps 688 mmHg 69%
    10:00 +27°C° 0.2 mm 4 mps 688 mmHg 68%
    11:00 +28°C° 0.2 mm 3 mps 688 mmHg 66%
    12:00 +29°C° 0.2 mm 3 mps 687 mmHg 65%
    13:00 +28°C° 0.8 mm 3 mps 687 mmHg 66%
    14:00 +28°C° 0.8 mm 3 mps 686 mmHg 67%
    15:00 +28°C° 0.8 mm 3 mps 686 mmHg 69%
    16:00 +26°C° 0.1 mm 3 mps 686 mmHg 73%
    17:00 +25°C° 0.1 mm 3 mps 686 mmHg 77%
    18:00 +24°C° 0.1 mm 2 mps 686 mmHg 81%
    19:00 +23°C° 0 mm 2 mps 686 mmHg 83%
    20:00 +23°C° 0 mm 2 mps 686 mmHg 85%
    21:00 +21°C° 0 mm 2 mps 686 mmHg 88%
    22:00 +21°C° 0.1 mm 2 mps 686 mmHg 88%
    23:00 +21°C° 0.1 mm 2 mps 687 mmHg 89%

    Day after tomorrow, 18 July, Thursday

    Time Temperature Precipitation Wind Pressure Humidity
    00:00 +21°C° 0.1 mm 2 mps 687 mmHg 90%
    01:00 +21°C° 0 mm 2 mps 686 mmHg 91%
    02:00 +20°C° 0 mm 2 mps 686 mmHg 91%
    03:00 +20°C° 0 mm 2 mps 685 mmHg 92%
    04:00 +20°C° 0 mm 2 mps 686 mmHg 93%
    05:00 +20°C° 0 mm 2 mps 686 mmHg 93%
    06:00 +20°C° 0 mm 2 mps 686 mmHg 94%
    07:00 +21°C° 0 mm 3 mps 687 mmHg 84%
    08:00 +23°C° 0 mm 4 mps 687 mmHg 75%
    09:00 +26°C° 0 mm 5 mps 688 mmHg 66%
    10:00 +26°C° 0 mm 5 mps 688 mmHg 63%
    11:00 +27°C° 0 mm 5 mps 687 mmHg 60%
    12:00 +28°C° 0 mm 6 mps 687 mmHg 56%
    13:00 +28°C° 0 mm 5 mps 687 mmHg 57%
    14:00 +28°C° 0 mm 5 mps 686 mmHg 57%
    15:00 +28°C° 0 mm 5 mps 685 mmHg 58%
    16:00 +27°C° 0 mm 4 mps 685 mmHg 64%
    17:00 +25°C° 0 mm 4 mps 685 mmHg 70%
    18:00 +24°C° 0 mm 3 mps 685 mmHg 76%
    19:00 +22°C° 0 mm 3 mps 685 mmHg 79%
    20:00 +21°C° 0 mm 3 mps 686 mmHg 83%
    21:00 +20°C° 0 mm 3 mps 686 mmHg 86%
    22:00 +20°C° 0 mm 2 mps 686 mmHg 88%
    23:00 +19°C° 0 mm 2 mps 686 mmHg 91%

    19 July, Friday

    Time Temperature Precipitation Wind Pressure Humidity
    00:00 +19°C° 0 mm 2 mps 686 mmHg 93%
    01:00 +18°C° 0 mm 2 mps 685 mmHg 93%
    02:00 +18°C° 0 mm 2 mps 685 mmHg 93%
    03:00 +18°C° 0 mm 2 mps 685 mmHg 93%
    04:00 +18°C° 0 mm 2 mps 685 mmHg 93%
    05:00 +18°C° 0 mm 2 mps 685 mmHg 93%
    06:00 +18°C° 0 mm 2 mps 685 mmHg 93%
    07:00 +20°C° 0 mm 3 mps 686 mmHg 84%
    08:00 +22°C° 0 mm 3 mps 687 mmHg 76%
    09:00 +26°C° 0 mm 4 mps 687 mmHg 67%
    10:00 +27°C° 0 mm 4 mps 687 mmHg 64%
    11:00 +28°C° 0 mm 4 mps 687 mmHg 61%
    12:00 +29°C° 0 mm 4 mps 687 mmHg 58%
    13:00 +29°C° 0 mm 4 mps 686 mmHg 59%
    14:00 +29°C° 0 mm 4 mps 686 mmHg 60%
    15:00 +29°C° 0 mm 4 mps 685 mmHg 60%
    16:00 +28°C° 0 mm 4 mps 685 mmHg 66%
    17:00 +26°C° 0 mm 3 mps 685 mmHg 73%
    18:00 +25°C° 0 mm 2 mps 685 mmHg 79%
    19:00 +24°C° 0 mm 2 mps 685 mmHg 81%
    20:00 +23°C° 0 mm 2 mps 686 mmHg 84%
    21:00 +21°C° 0 mm 2 mps 686 mmHg 86%
    22:00 +21°C° 0 mm 2 mps 686 mmHg 87%
    23:00 +21°C° 0 mm 2 mps 686 mmHg 88%

    20 July, Saturday

    Time Temperature Precipitation Wind Pressure Humidity
    00:00 +21°C° 0 mm 2 mps 686 mmHg 88%
    01:00 +21°C° 0 mm 2 mps 685 mmHg 90%
    02:00 +20°C° 0 mm 2 mps 685 mmHg 92%
    03:00 +20°C° 0 mm 2 mps 684 mmHg 93%
    04:00 +20°C° 0 mm 2 mps 684 mmHg 93%
    05:00 +20°C° 0 mm 2 mps 685 mmHg 93%
    06:00 +21°C° 0 mm 2 mps 685 mmHg 92%
    07:00 +23°C° 0 mm 2 mps 685 mmHg 86%
    08:00 +25°C° 0 mm 3 mps 686 mmHg 80%
    09:00 +26°C° 0 mm 3 mps 686 mmHg 74%
    10:00 +27°C° 0.1 mm 4 mps 686 mmHg 70%
    11:00 +29°C° 0.1 mm 4 mps 686 mmHg 65%
    12:00 +30°C° 0.1 mm 5 mps 686 mmHg 60%
    13:00 +28°C° 1.6 mm 5 mps 686 mmHg 67%
    14:00 +27°C° 1.6 mm 5 mps 685 mmHg 73%
    15:00 +26°C° 1.6 mm 4 mps 684 mmHg 79%
    16:00 +25°C° 0.4 mm 4 mps 684 mmHg 83%
    17:00 +22°C° 0.4 mm 3 mps 685 mmHg 88%
    18:00 +21°C° 0.4 mm 3 mps 685 mmHg 92%
    19:00 +21°C° 0.1 mm 3 mps 685 mmHg 92%
    20:00 +21°C° 0.1 mm 3 mps 685 mmHg 92%
    21:00 +21°C° 0.1 mm 3 mps 686 mmHg 92%
    22:00 +21°C° 0 mm 3 mps 686 mmHg 91%
    23:00 +20°C° 0 mm 3 mps 685 mmHg 91%

    21 July, Sunday

    Time Temperature Precipitation Wind Pressure Humidity
    00:00 +20°C° 0 mm 3 mps 685 mmHg 90%
    01:00 +20°C° 0 mm 3 mps 685 mmHg 91%
    02:00 +20°C° 0 mm 2 mps 684 mmHg 92%
    03:00 +19°C° 0 mm 2 mps 684 mmHg 93%
    04:00 +20°C° 0 mm 2 mps 684 mmHg 93%
    05:00 +20°C° 0 mm 3 mps 684 mmHg 93%
    06:00 +20°C° 0 mm 3 mps 684 mmHg 94%
    07:00 +22°C° 0 mm 3 mps 685 mmHg 86%
    08:00 +25°C° 0 mm 4 mps 686 mmHg 78%
    09:00 +27°C° 0 mm 4 mps 687 mmHg 70%
    10:00 +28°C° 0 mm 5 mps 687 mmHg 65%
    11:00 +29°C° 0 mm 5 mps 687 mmHg 61%
    12:00 +30°C° 0 mm 5 mps 687 mmHg 57%
    13:00 +29°C° 0.1 mm 5 mps 686 mmHg 60%
    14:00 +28°C° 0.1 mm 5 mps 686 mmHg 62%
    15:00 +28°C° 0.1 mm 5 mps 685 mmHg 65%
    16:00 +26°C° 0 mm 4 mps 685 mmHg 70%
    17:00 +25°C° 0 mm 3 mps 685 mmHg 75%
    18:00 +24°C° 0 mm 2 mps 685 mmHg 80%
    19:00 +23°C° 0 mm 2 mps 685 mmHg 80%
    20:00 +22°C° 0 mm 3 mps 686 mmHg 80%
    21:00 +22°C° 0 mm 3 mps 686 mmHg 79%
    22:00 +21°C° 0 mm 2 mps 686 mmHg 80%
    23:00 +21°C° 0 mm 2 mps 686 mmHg 81%
    Show more